PEARL WHITE 1 (44497 NORAD) Tracking and Keplerian Element Data

This shows tracking and keplerian element data for the satellite.

Feedback or suggestion? Click here.




ElementValue
Catalog44497
NamePEARL WHITE 1
Epoch Orbit406
Epoch Day258.58113885
Epoch Year2019
RAAN311.999
Inclination45.0153
Eccentricity0.0009874
Argument of Perigee61.1807
Mean Anonmoly61.6262
Mean Motion15.08122149
Decay Rate6.5E-07
L11 44497U 19054C 19258.58113885 .00000065 00000-0 19929-4 0 9996
L22 44497 45.0153 311.9990 0009874 61.1807 61.6262 15.08122149 4067

Live tracking and technical data element details for PEARL WHITE 1 (NORAD 44497). PEARL WHITE 1 can be tracked NOW for your location showing map with azimuth and elevation plus other details from your city location.

Track the satellite on the map from your city or location and see movement details for azimuth, elevation, latitude, longitude, range, height, and movement on the map or in text.







IsCatalogInMostPopularTable: catalog: 44497, numindb: 11
Update: records affected: 1



GetName: 44497 PEARL WHITE 1

Hit Count: updated at: Wed, 23 Oct 2019 00:37:02 GMT